TimeEST,TemperatureF,Dew PointF,Humidity,Sea Level PressureIn,VisibilityMPH,Wind Direction,Wind SpeedMPH,Gust SpeedMPH,PrecipitationIn,Events,Conditions,WindDirDegrees,DateUTC
12:53 AM,55.9,53.1,90,30.03,10.0,Calm,Calm,-,N/A,,Clear,0,2012-12-19 05:53:00
1:53 AM,55.9,52.0,87,30.02,10.0,NW,3.5,-,N/A,,Clear,320,2012-12-19 06:53:00
2:53 AM,55.9,50.0,80,30.03,10.0,WNW,3.5,-,N/A,,Clear,290,2012-12-19 07:53:00
3:53 AM,55.0,50.0,83,30.03,10.0,Calm,Calm,-,N/A,,Clear,0,2012-12-19 08:53:00
4:53 AM,53.1,48.9,86,30.04,10.0,Calm,Calm,-,N/A,,Clear,0,2012-12-19 09:53:00
5:53 AM,53.1,48.9,86,30.05,10.0,WNW,3.5,-,N/A,,Clear,290,2012-12-19 10:53:00
6:53 AM,53.1,50.0,89,30.06,10.0,Calm,Calm,-,N/A,,Clear,0,2012-12-19 11:53:00
7:53 AM,55.9,54.0,93,30.08,10.0,West,3.5,-,N/A,,Clear,270,2012-12-19 12:53:00
8:53 AM,64.9,60.1,84,30.09,10.0,Calm,Calm,-,N/A,,Clear,0,2012-12-19 13:53:00
9:53 AM,73.9,61.0,64,30.11,10.0,Variable,3.5,-,N/A,,Clear,0,2012-12-19 14:53:00
10:53 AM,77.0,55.9,48,30.11,10.0,Variable,4.6,-,N/A,,Clear,0,2012-12-19 15:53:00
11:53 AM,78.1,57.0,48,30.09,10.0,Variable,4.6,-,N/A,,Clear,0,2012-12-19 16:53:00
12:53 PM,78.1,55.9,46,30.07,10.0,SSE,5.8,-,N/A,,Clear,150,2012-12-19 17:53:00
1:53 PM,78.1,57.0,48,30.06,10.0,East,5.8,-,N/A,,Clear,100,2012-12-19 18:53:00
2:53 PM,77.0,57.9,52,30.05,10.0,East,6.9,-,N/A,,Clear,90,2012-12-19 19:53:00
3:53 PM,77.0,57.0,50,30.06,10.0,ESE,4.6,-,N/A,,Clear,120,2012-12-19 20:53:00
4:53 PM,75.0,59.0,57,30.06,10.0,ENE,3.5,-,N/A,,Clear,70,2012-12-19 21:53:00
5:53 PM,69.1,59.0,70,30.06,10.0,Calm,Calm,-,N/A,,Clear,0,2012-12-19 22:53:00
6:53 PM,63.0,57.0,81,30.08,10.0,Calm,Calm,-,N/A,,Clear,0,2012-12-19 23:53:00
7:53 PM,60.1,55.0,83,30.09,10.0,Calm,Calm,-,N/A,,Clear,0,2012-12-20 00:53:00
8:53 PM,61.0,55.9,83,30.09,10.0,Calm,Calm,-,N/A,,Clear,0,2012-12-20 01:53:00
9:53 PM,61.0,57.0,87,30.09,10.0,ESE,3.5,-,N/A,,Clear,120,2012-12-20 02:53:00
10:53 PM,61.0,57.0,87,30.09,10.0,East,4.6,-,N/A,,Clear,100,2012-12-20 03:53:00
11:53 PM,68.0,60.1,76,30.10,10.0,ESE,5.8,-,N/A,,Partly Cloudy,110,2012-12-20 04:53:00